DECAYED

STARLINK-1056, 44761 (Decayed)

Orbit data source: Space-Track

STARLINK-1056, 44761 was a payload satellite owned by SpaceX/Seattle (US) in LEO that was launched on Mon, 11 Nov 2019 UTC via an FALCON 9 launch vehicle from the Air Force Eastern Test Range (AFETR). Payload-class satellites include a variety of spacecraft equipped with specific instruments for various scientific and technological missions. These include communications satellites like Starlink; space stations such as the ISS; scientific satellites like the Hubble; Earth observation satellites from companies like Planet Labs, Umbra, and HawkEye 360; GPS; miniature CubeSats for education and research; and military/defense satellites.

Not visible in the next 10 days
Identifier
44761, 2019-074BA
Orbit
Decayed
Country
Flag of USUS
Related business
Manufacturer
SpaceX/Seattle
Mission
Decayed Commercial Communications
Bus & Motor
STARLINK, Unknown motor
Mass
260 kg wet, ~248 kg dry
Launch date (UTC)
2019-11-11 (6 years ago)
Launch vehicle
FALCON 9
Launch site
Air Force Eastern Test Range (AFETR)
Object type
Payload
Rocket body
Debris
Shape & HBR
Box + 1 Pan, 10.1 m
Radar Cross Section
13.562 m², Large (>1 m²)

Expand to show TLE details & history
Last TLE update: 3 months ago

TLE from 3 months ago
0 STARLINK-1056
1 44761U 19074BA  25312.58314295  .10754479  12477-4  35694-3 0  9995
2 44761  53.0238 331.5696 0005119 263.7280  96.3185 16.44462996331046
Epoch: 2025-11-08T13:59Z
TLE epoch observation values (Epoch: 2025-11-08T13:59:43.550Z)
Latitude
-0.00005°
Longitude
73.62743°
Altitude
155.255 km
Speed
7.814 km/s
True Right ascension
22h 06m 16s
True Declination
0° 00' 00"
Sunlit
Object was in full shadow at epoch
Visualization orbit readout
Latitude
Unknown
Longitude
Unknown
Altitude
Unknown
Speed
Unknown
Apparent Right ascension
Unknown
Apparent Declination
Unknown
Sunlit
N/A
Visualization observer readout
Local Sidereal Time
02:46:06
Azimuth
Unknown
Elevation
Unknown
Doppler factor
Unknown
Orbital elements
Apogee altitude
157.593 km
Perigee altitude
150.905 km
Semi-major axis
6,532.386 km
Eccentricity
0.00051
Inclination
53.0238°
RAAN
331.5696°
Arg. of periapsis
263.728°
True anomaly
96.3768°
Mean anomaly
96.3185°
Eccentric anomaly
96.34765°
Mean motion
4.11089 °/min
Orbital period
87.57 mins
BSTAR
0.00035694
Loading maneuver chart data...
Computing Atmospheric mass density...

Documentation

Showing up to 5 results
|